Location: *
(18.5200°S, 46.4500°E)
Time: 01:36:49
(UTC+00:00)

Yuri Rocket - Pass Details

Date: 19 July 2019
Orbit: 568 x 1914 km, 28.2° (Epoch: 20 August)

Event Time Altitude Azimuth Distance (km) Brightness Sun altitude
Rises 15:39:16 0° 242° (WSW) 2,883 7.2 -15.2°
Reaches altitude 10° 15:41:27 10° 236° (SW) 2,064 6.3 -15.7°
Maximum altitude 15:46:02 48° 161° (SSE) 1,002 3.8 -16.7°
Enters shadow 15:48:43 28° 103° (ESE) 1,545 4.5 -17.3°
